date_time,ciscoMemoryPoolUsed,ciscoMemoryPoolFree
Mon Jan 22 06:00:00 2024,20044560.6666667,55594484
Mon Jan 22 08:00:00 2024,20044460,55595153.3333333
Mon Jan 22 10:00:00 2024,20044455.1333333,55594496.4666667
Mon Jan 22 12:00:00 2024,20051770.4666667,55594992.5333333
Mon Jan 22 14:00:00 2024,20045272.1333333,55593728
Mon Jan 22 16:00:00 2024,20045062.3333333,55593914.3333333
Mon Jan 22 18:00:00 2024,20051726.1333333,55593870.1333333
Mon Jan 22 20:00:00 2024,20045083.2,55593854.6666667
Mon Jan 22 22:00:00 2024,20045026.1333333,55594492.9333333
Tue Jan 23 00:00:00 2024,20044569.6,55594479.7333333
Tue Jan 23 02:00:00 2024,20044574.7333333,55594542.1333333
Tue Jan 23 04:00:00 2024,20044470.9333333,55594547.2
Tue Jan 23 06:00:00 2024,20044417.8666667,55594601.0666667
Tue Jan 23 08:00:00 2024,20044430.9333333,55595283.4666667
Tue Jan 23 10:00:00 2024,20044837.2,55594612.8
Tue Jan 23 12:00:00 2024,20044857.7333333,55594537.8
Tue Jan 23 14:00:00 2024,20044401.8,55595128.4
Tue Jan 23 16:00:00 2024,20043903.8,55595149.4
Tue Jan 23 18:00:00 2024,20047381,55595637.2
Tue Jan 23 20:00:00 2024,20043848.8,55595133.6
Tue Jan 23 22:00:00 2024,20043816.2,55595152.8
Wed Jan 24 00:00:00 2024,20043802.4,55595182.8
Wed Jan 24 02:00:00 2024,20043867.2,55595122.8
Wed Jan 24 04:00:00 2024,20043907.8,55595148.4
Wed Jan 24 06:00:00 2024,20044015.4,55595139
Wed Jan 24 08:00:00 2024,20049782.6,55595837.6
Wed Jan 24 10:00:00 2024,20050380.4,55595731.7333333
Wed Jan 24 12:00:00 2024,20043919.0666667,55595204.8
Wed Jan 24 14:00:00 2024,20043781.7333333,55595222.4
Wed Jan 24 16:00:00 2024,20050430.4,55595118.2
Wed Jan 24 18:00:00 2024,20046757.4,55595125.6
Wed Jan 24 20:00:00 2024,20043822.4,55595105
Wed Jan 24 22:00:00 2024,20050850,55595091.4
Thu Jan 25 00:00:00 2024,20044422,55595199.8
Thu Jan 25 02:00:00 2024,20043850.9333333,55595217.3333333
Thu Jan 25 04:00:00 2024,20043843.6,55595686.6
Thu Jan 25 06:00:00 2024,20043785.4,55595201
Thu Jan 25 08:00:00 2024,20043826.6,55595916.8
Thu Jan 25 10:00:00 2024,20043878.8,55595126.4
Thu Jan 25 12:00:00 2024,20050860.6666667,55595034.4
Thu Jan 25 14:00:00 2024,20044924.5333333,55594512.8666667
Thu Jan 25 16:00:00 2024,20044966.3333333,55594031.2
Thu Jan 25 18:00:00 2024,20044966.8,55594535.6
Thu Jan 25 20:00:00 2024,20044382.8,55595024.6666667
Thu Jan 25 22:00:00 2024,20050750.4666667,55594464
Fri Jan 26 00:00:00 2024,20045251.9333333,55593813.2666667
Fri Jan 26 02:00:00 2024,20045288.6666667,55593813.2666667
Fri Jan 26 04:00:00 2024,20045353.4,55593834.4666667
Fri Jan 26 06:00:00 2024,20045286.4,55593811.3333333
Fri Jan 26 08:00:00 2024,20050976,55594518.6
Fri Jan 26 10:00:00 2024,20045776,55593252.3333333
Fri Jan 26 12:00:00 2024,20045843,55593691.3333333
Fri Jan 26 14:00:00 2024,20045219.6666667,55593912.6666667
Fri Jan 26 16:00:00 2024,20050346,55593866
Fri Jan 26 18:00:00 2024,20052823,55593872.6666667
Fri Jan 26 20:00:00 2024,20046350.4,55593219.2
Fri Jan 26 22:00:00 2024,20045665.6,55593289.6
Sat Jan 27 00:00:00 2024,20045640,55593305.6
Sat Jan 27 02:00:00 2024,20045597.6,55593391.2
Sat Jan 27 04:00:00 2024,20052329.3333333,55593316.8
Sat Jan 27 06:00:00 2024,20052287.3333333,55591907.3333333
Sat Jan 27 08:00:00 2024,20047039,55592580.3333333
Sat Jan 27 10:00:00 2024,20047049.3333333,55592021.3333333
Sat Jan 27 12:00:00 2024,20047172,55591919.6666667
Sat Jan 27 14:00:00 2024,20047119.6666667,55591815.6666667
Sat Jan 27 16:00:00 2024,20047078.3333333,55591928.3333333
Sat Jan 27 18:00:00 2024,20053556.6666667,55591880.6666667
Sat Jan 27 20:00:00 2024,20048363,55590684.6666667
Sat Jan 27 22:00:00 2024,20048384,55590660.6666667
Sun Jan 28 00:00:00 2024,20048368.3333333,55590714.3333333
Sun Jan 28 02:00:00 2024,20053261.6666667,55590696.3333333
Sun Jan 28 04:00:00 2024,20048379.6666667,55590710
Sun Jan 28 06:00:00 2024,20048278.6666667,55591160.6666667
Sun Jan 28 08:00:00 2024,20048349.3333333,55591411
Sun Jan 28 10:00:00 2024,20048306.3333333,55590684.3333333
Sun Jan 28 12:00:00 2024,20048248.6666667,55590732.6666667
Sun Jan 28 14:00:00 2024,20048234.3333333,55590762.3333333
Sun Jan 28 16:00:00 2024,20048189,55590766.6666667
Sun Jan 28 18:00:00 2024,20048250,55592663.4666667
Sun Jan 28 20:00:00 2024,20046922,55592107.4666667
Sun Jan 28 22:00:00 2024,20047038.6,55592129.4
Mon Jan 29 00:00:00 2024,20046892.2,55592059.4
Mon Jan 29 02:00:00 2024,20046955,55591996.4
Mon Jan 29 04:00:00 2024,20046965.2,55592146.6
Mon Jan 29 06:00:00 2024,20046915,55592086.6
Mon Jan 29 08:00:00 2024,20046907.4,55592719.2
Mon Jan 29 10:00:00 2024,20046911.6666667,55592077.6666667
Mon Jan 29 12:00:00 2024,20052058,55595051.6666667
Mon Jan 29 14:00:00 2024,20051799.3333333,55593691.3333333
Mon Jan 29 16:00:00 2024,20052335,55593625.3333333
Mon Jan 29 18:00:00 2024,20045812,55593282.6666667
Mon Jan 29 20:00:00 2024,20050969.3333333,55593286.6666667
Mon Jan 29 22:00:00 2024,20045665,55593272
Tue Jan 30 00:00:00 2024,20045615,55593388.6666667
Tue Jan 30 02:00:00 2024,20045833.6666667,55593299
Tue Jan 30 04:00:00 2024,20045883.3333333,55593831
Tue Jan 30 06:00:00 2024,20045783,55593177
Tue Jan 30 08:00:00 2024,20045792.3333333,55593881
Tue Jan 30 10:00:00 2024,20049493.4666667,55593248.5333333
Tue Jan 30 12:00:00 2024,20051090,55593724
Tue Jan 30 14:00:00 2024,20045255,55593773
Tue Jan 30 16:00:00 2024,20045209,55593786.4
Tue Jan 30 18:00:00 2024,20051775.6,55593822.6
Tue Jan 30 20:00:00 2024,20051803.4,55592510.2
Tue Jan 30 22:00:00 2024,20046466.4,55592570.4
Wed Jan 31 00:00:00 2024,20046480.6,55592537.6
Wed Jan 31 02:00:00 2024,20046465.4,55592555.2
Wed Jan 31 04:00:00 2024,20046421.2,55593150
Wed Jan 31 06:00:00 2024,20046528.8,55592489.8
Wed Jan 31 08:00:00 2024,20046516.6,55593190.4
Wed Jan 31 10:00:00 2024,20047665,55592457.2
Wed Jan 31 12:00:00 2024,20047665.3333333,55591341.3333333
Wed Jan 31 14:00:00 2024,20047729.6666667,55591325
Wed Jan 31 16:00:00 2024,20047730.3333333,55591381.3333333
Wed Jan 31 18:00:00 2024,20057263.4666667,55591966.3333333
Wed Jan 31 20:00:00 2024,20047590.3333333,55591463
Wed Jan 31 22:00:00 2024,20047587.6666667,55591962.3333333
Thu Feb  1 00:00:00 2024,20047093,55591986.6666667
Thu Feb  1 02:00:00 2024,20053351.2,55592069.6
Thu Feb  1 04:00:00 2024,20046941.6,55592104.8
Thu Feb  1 06:00:00 2024,20046986.4,55592088
Thu Feb  1 08:00:00 2024,20047073.6,55592611.2
Thu Feb  1 10:00:00 2024,20047058,55591964
Thu Feb  1 12:00:00 2024,20057401.3333333,55591962.6666667
Thu Feb  1 14:00:00 2024,20047003.6666667,55592815.6666667
Thu Feb  1 16:00:00 2024,20047479,55591999.6666667
Thu Feb  1 18:00:00 2024,20047582.6666667,55591435.3333333
Thu Feb  1 20:00:00 2024,20047587.6666667,55591463.6666667
Thu Feb  1 22:00:00 2024,20047512,55592441.3333333
Fri Feb  2 00:00:00 2024,20046604.8,55592528
Fri Feb  2 02:00:00 2024,20046549.6,55592589.6
Fri Feb  2 04:00:00 2024,20046517.6,55592532.8
Fri Feb  2 06:00:00 2024,20051692.8,55592523.2
Fri Feb  2 08:00:00 2024,20046667.2,55593173.6
Fri Feb  2 10:00:00 2024,20046541.8666667,55592512.5333333
Fri Feb  2 12:00:00 2024,20047639,55592033.4666667
Fri Feb  2 14:00:00 2024,20047610.2,55591814.4
Fri Feb  2 16:00:00 2024,20047147.4,55591826.2
Fri Feb  2 18:00:00 2024,20047697.8,55591791.2
Fri Feb  2 20:00:00 2024,20047722.2,55591292.4
Fri Feb  2 22:00:00 2024,20047604.2,55591898
Sat Feb  3 00:00:00 2024,20047051.7333333,55592437.3333333
Sat Feb  3 02:00:00 2024,20047116.2666667,55591886.4
Sat Feb  3 04:00:00 2024,20047095.7333333,55591903.2
Sat Feb  3 06:00:00 2024,20047149.3333333,55591863.2
Sat Feb  3 08:00:00 2024,20047185.8666667,55592545.6
Sat Feb  3 10:00:00 2024,20047216,55591903.7333333
Sat Feb  3 12:00:00 2024,20047668.9333333,55591853.0666667
Sat Feb  3 14:00:00 2024,20047585.6,55591944.9333333
Sat Feb  3 16:00:00 2024,20047088.1333333,55591978.5333333
Sat Feb  3 18:00:00 2024,20047628,55591869.8666667
Sat Feb  3 20:00:00 2024,20054466.8,55591637.6
Sat Feb  3 22:00:00 2024,0,0
Sun Feb  4 00:00:00 2024,0,0
Sun Feb  4 02:00:00 2024,0,0
Sun Feb  4 04:00:00 2024,0,0
Sun Feb  4 06:00:00 2024,0,0
Sun Feb  4 08:00:00 2024,0,0
Sun Feb  4 10:00:00 2024,20047070.8,55591868.6666667
Sun Feb  4 12:00:00 2024,20047231.3333333,55591867.3333333
Sun Feb  4 14:00:00 2024,20047168.4,55591873.4666667
Sun Feb  4 16:00:00 2024,20047112.6666667,55591978.4
Sun Feb  4 18:00:00 2024,20051889.7333333,55591987.0666667
Sun Feb  4 20:00:00 2024,20058232.1333333,55591388.9333333
Sun Feb  4 22:00:00 2024,0,0
Mon Feb  5 00:00:00 2024,0,0
Mon Feb  5 02:00:00 2024,0,0
Mon Feb  5 04:00:00 2024,0,0
Mon Feb  5 06:00:00 2024,0,0
Mon Feb  5 08:00:00 2024,0,0
Mon Feb  5 10:00:00 2024,0,0
Mon Feb  5 12:00:00 2024,0,0
Mon Feb  5 14:00:00 2024,0,0
Mon Feb  5 16:00:00 2024,0,0
Mon Feb  5 18:00:00 2024,0,0
Mon Feb  5 20:00:00 2024,0,0
Mon Feb  5 22:00:00 2024,0,0
Tue Feb  6 00:00:00 2024,0,0
Tue Feb  6 02:00:00 2024,0,0
Tue Feb  6 04:00:00 2024,0,0
Tue Feb  6 06:00:00 2024,0,0
Tue Feb  6 08:00:00 2024,0,0
Tue Feb  6 10:00:00 2024,20045248.2666667,55593732.2666667
Tue Feb  6 12:00:00 2024,20054240.2666667,55593744.8
Tue Feb  6 14:00:00 2024,20045254.9333333,55593809.3333333
Tue Feb  6 16:00:00 2024,20045296,55593868.6
Tue Feb  6 18:00:00 2024,20045200.8,55593792.8
Tue Feb  6 20:00:00 2024,20054314.6,55593760.8
Tue Feb  6 22:00:00 2024,20045136.6,55593849.6
Wed Feb  7 00:00:00 2024,20045250.2,55594298.6
Wed Feb  7 02:00:00 2024,20045607.6,55593850.8
Wed Feb  7 04:00:00 2024,20045235.4,55593776.6
Wed Feb  7 06:00:00 2024,20045204.8,55593796
Wed Feb  7 08:00:00 2024,20045187.8,55594530.2
Wed Feb  7 10:00:00 2024,20045370.2666667,55593800
Wed Feb  7 12:00:00 2024,20045271.0666667,55593880.1333333
Wed Feb  7 14:00:00 2024,20045189.6,55593786.4
Wed Feb  7 16:00:00 2024,20045247.0666667,55593859.6
Wed Feb  7 18:00:00 2024,20045169.7333333,55593820.9333333
Wed Feb  7 20:00:00 2024,20045366.8,55593758
Wed Feb  7 22:00:00 2024,20045221.6,55593793.0666667
Thu Feb  8 00:00:00 2024,20045269.2,55593893.4
Thu Feb  8 02:00:00 2024,20045246.4,55593721.2
Thu Feb  8 04:00:00 2024,20045268.2,55593747.6
Thu Feb  8 06:00:00 2024,20045369.3333333,55593799.4666667
Thu Feb  8 08:00:00 2024,20045240,55594438.8
Thu Feb  8 10:00:00 2024,20052286.4,55593801.6
Thu Feb  8 12:00:00 2024,20045812.8,55593262.1333333
Thu Feb  8 14:00:00 2024,20046326.1333333,55593217.9333333
Thu Feb  8 16:00:00 2024,20046427.7333333,55592621.0666667
Thu Feb  8 18:00:00 2024,20046297.3333333,55593273.8666667
Thu Feb  8 20:00:00 2024,20048265,55593368.9333333
Thu Feb  8 22:00:00 2024,20050539.6666667,55593734.4
Fri Feb  9 00:00:00 2024,20045333.1333333,55594345.8
Fri Feb  9 02:00:00 2024,20045240.2,55593855.4666667
Fri Feb  9 04:00:00 2024,20045236.5333333,55593783.3333333
Fri Feb  9 06:00:00 2024,20045218.8,55593801.9333333
Fri Feb  9 08:00:00 2024,20045354.7333333,55594536.3333333
Fri Feb  9 10:00:00 2024,20045753,55593755
Fri Feb  9 12:00:00 2024,20054946.3333333,55593690.3333333
Fri Feb  9 14:00:00 2024,20045777.6666667,55593744.3333333
Fri Feb  9 16:00:00 2024,0,0
Fri Feb  9 18:00:00 2024,20046496.2666667,55592585.3333333
Fri Feb  9 20:00:00 2024,0,0
Fri Feb  9 22:00:00 2024,0,0
Sat Feb 10 00:00:00 2024,0,0
Sat Feb 10 02:00:00 2024,0,0
Sat Feb 10 04:00:00 2024,0,0
Sat Feb 10 06:00:00 2024,0,0
Sat Feb 10 08:00:00 2024,0,0
Sat Feb 10 10:00:00 2024,20047194,55591885
Sat Feb 10 12:00:00 2024,20047117.3333333,55591897.6666667
Sat Feb 10 14:00:00 2024,20047115,55591896.3333333
Sat Feb 10 16:00:00 2024,20047152.3333333,55591857
Sat Feb 10 18:00:00 2024,20047045.8666667,55591923.6
Sat Feb 10 20:00:00 2024,20050026.6666667,55591893
Sat Feb 10 22:00:00 2024,20047088.3333333,55591870.6666667
Sun Feb 11 00:00:00 2024,20052261,55592555.6666667
Sun Feb 11 02:00:00 2024,20047142.6666667,55591900
Sun Feb 11 04:00:00 2024,20047082.4,55591919.2
Sun Feb 11 06:00:00 2024,20047121.6,55591926.4
Sun Feb 11 08:00:00 2024,20047147.2,55592551.2
Sun Feb 11 10:00:00 2024,20047062.3333333,55591998.3333333
Sun Feb 11 12:00:00 2024,20047153.2,55592489.4666667
Sun Feb 11 14:00:00 2024,20047096.5333333,55591917.3333333
Sun Feb 11 16:00:00 2024,20047590.3333333,55591980.6666667
Sun Feb 11 18:00:00 2024,20047630.3333333,55591401.3333333
Sun Feb 11 20:00:00 2024,20047480,55591968
Sun Feb 11 22:00:00 2024,20052089.3333333,55593230.6666667
Mon Feb 12 00:00:00 2024,20045708.3333333,55593239
Mon Feb 12 02:00:00 2024,20045843,55593234
Mon Feb 12 04:00:00 2024,20045756,55593876.6666667
Mon Feb 12 06:00:00 2024,20045791.6666667,55593190.3333333
Mon Feb 12 08:00:00 2024,20045755.2,55593969.6
Mon Feb 12 10:00:00 2024,20045831.2,55593172.5333333
Mon Feb 12 12:00:00 2024,20045640.8,55593888.5333333
Mon Feb 12 14:00:00 2024,20045153.7333333,55593890
Mon Feb 12 16:00:00 2024,20045801,55593862.3333333
Mon Feb 12 18:00:00 2024,20046124.6666667,55593406.3333333
Mon Feb 12 20:00:00 2024,20052574.6666667,55592865.6666667
Mon Feb 12 22:00:00 2024,20046239.6666667,55593281
Tue Feb 13 00:00:00 2024,20045681,55593351.6666667
Tue Feb 13 02:00:00 2024,20045634.6666667,55593996.3333333
Tue Feb 13 04:00:00 2024,20045809.7333333,55593913.2
Tue Feb 13 06:00:00 2024,20045762.5333333,55593216.4
Tue Feb 13 08:00:00 2024,20045844,55593880.8
Tue Feb 13 10:00:00 2024,20045654.2,55593911.7333333
Tue Feb 13 12:00:00 2024,20045317.8,55593804
Tue Feb 13 14:00:00 2024,20045256.2,55593900.4
Tue Feb 13 16:00:00 2024,20045123.8,55593834
Tue Feb 13 18:00:00 2024,20046209.6,55593708.6
Tue Feb 13 20:00:00 2024,20052117.6,55593394.2
Tue Feb 13 22:00:00 2024,20046171,55593319.6
Wed Feb 14 00:00:00 2024,20045731.6,55593271.0666667
Wed Feb 14 02:00:00 2024,20045647,55593286.8
Wed Feb 14 04:00:00 2024,20045622.1333333,55593305.4666667
Wed Feb 14 06:00:00 2024,20045715.7333333,55593389.0666667
Wed Feb 14 08:00:00 2024,20045709.8666667,55593998.6666667
Wed Feb 14 10:00:00 2024,20045663.2,55593288.8
Wed Feb 14 12:00:00 2024,20056092.8,55595428.8
Wed Feb 14 14:00:00 2024,20049641.6,55593312.8
Wed Feb 14 16:00:00 2024,20045779.3333333,55593256.6666667
Wed Feb 14 18:00:00 2024,20052264,55593283
Wed Feb 14 20:00:00 2024,20047001.3333333,55593158
Wed Feb 14 22:00:00 2024,20045840.6666667,55593180
Thu Feb 15 00:00:00 2024,20045787.3333333,55593228.6666667
Thu Feb 15 02:00:00 2024,20045833.3333333,55593180
Thu Feb 15 04:00:00 2024,20045781,55593218.3333333
Thu Feb 15 06:00:00 2024,20045805,55593169
Thu Feb 15 08:00:00 2024,20045975.3333333,55593823
Thu Feb 15 10:00:00 2024,20045841,55593185
Thu Feb 15 12:00:00 2024,20046412.6666667,55593173.6666667
Thu Feb 15 14:00:00 2024,20046424,55593023.6666667
Thu Feb 15 16:00:00 2024,20046375.6666667,55593191
Thu Feb 15 18:00:00 2024,20046328,55593762.6666667
Thu Feb 15 20:00:00 2024,20045774.6666667,55593650.6666667
Thu Feb 15 22:00:00 2024,20045181.6666667,55593819.6666667
Fri Feb 16 00:00:00 2024,20050513.7333333,55595098.8
Fri Feb 16 02:00:00 2024,20043868,55595102.4
Fri Feb 16 04:00:00 2024,20043975.3333333,55595082.6666667
Fri Feb 16 06:00:00 2024,20044019.4666667,55595080.5333333
Fri Feb 16 08:00:00 2024,20043890.4,55595815.7333333
Fri Feb 16 10:00:00 2024,20043963.4666667,55595754
Fri Feb 16 12:00:00 2024,20050313.2,55594995.0666667
Fri Feb 16 14:00:00 2024,20045167.3333333,55593833.3333333
Fri Feb 16 16:00:00 2024,20045175.4666667,55593787.8666667
Fri Feb 16 18:00:00 2024,20045125.8666667,55593942.5333333
Fri Feb 16 20:00:00 2024,20048626.6666667,55593850
Fri Feb 16 22:00:00 2024,20049080.5333333,55593746.2666667
Sat Feb 17 00:00:00 2024,20045120.1333333,55593839.0666667
Sat Feb 17 02:00:00 2024,20045211.7333333,55593789.8666667
Sat Feb 17 04:00:00 2024,20051092,55594317.4666667
Sat Feb 17 06:00:00 2024,20045101.2,55594265.8666667
Sat Feb 17 08:00:00 2024,20045081.2,55594542.4
Sat Feb 17 10:00:00 2024,20045289.8666667,55593719.7333333
Sat Feb 17 12:00:00 2024,20051802.6666667,55593694.9333333
Sat Feb 17 14:00:00 2024,20045260.2,55593800.6
Sat Feb 17 16:00:00 2024,20045157,55593824
Sat Feb 17 18:00:00 2024,20045264.2,55593824.8
Sat Feb 17 20:00:00 2024,20045159.6,55593785.6
Sat Feb 17 22:00:00 2024,20048681.4,55593867.6
Sun Feb 18 00:00:00 2024,20045182.4,55593770.4
Sun Feb 18 02:00:00 2024,20045762.6666667,55593662.9333333
Sun Feb 18 04:00:00 2024,20045783.7333333,55593324
Sun Feb 18 06:00:00 2024,20045596.5333333,55593806.4
Sun Feb 18 08:00:00 2024,20049750.4,55594613.6
Sun Feb 18 10:00:00 2024,20045188,55593782.3333333
Sun Feb 18 12:00:00 2024,20045254.4,55593740
Sun Feb 18 14:00:00 2024,20045264.8,55593784
Sun Feb 18 16:00:00 2024,20045181.6,55593856.8
Sun Feb 18 18:00:00 2024,20045143.2,55593788.8
Sun Feb 18 20:00:00 2024,20049060,55593866.4
Sun Feb 18 22:00:00 2024,20045176,55593824.8
Mon Feb 19 00:00:00 2024,20045196.8,55593852.8
Mon Feb 19 02:00:00 2024,20045303.1333333,55594562.1333333
Mon Feb 19 04:00:00 2024,20045177.8,55593725
Mon Feb 19 06:00:00 2024,20045224.3333333,55593747.2
Mon Feb 19 08:00:00 2024,20045154,55594408.4
Mon Feb 19 10:00:00 2024,20045240.9333333,55593818.1333333
Mon Feb 19 12:00:00 2024,20045232.6666667,55593836.3333333
Mon Feb 19 14:00:00 2024,20045089.3333333,55593805.4666667
Mon Feb 19 16:00:00 2024,20045223,55593791.8666667
Mon Feb 19 18:00:00 2024,20051713.3333333,55593828
Mon Feb 19 20:00:00 2024,20046447.6666667,55593726.3333333
Mon Feb 19 22:00:00 2024,20045156.6,55593805.0666667
Tue Feb 20 00:00:00 2024,20045320.6666667,55593699.0666667
Tue Feb 20 02:00:00 2024,20045146.5333333,55593856.8
Tue Feb 20 04:00:00 2024,20045234,55593895.3333333
Tue Feb 20 06:00:00 2024,20045168,55593788.1333333
Tue Feb 20 08:00:00 2024,20045220.2666667,55594507.3333333
Tue Feb 20 10:00:00 2024,20045638,55593726.6666667
Tue Feb 20 12:00:00 2024,20134791.3333333,55593118.3333333
Tue Feb 20 14:00:00 2024,20045952.6666667,55594164.3333333
Tue Feb 20 16:00:00 2024,20045872.3333333,55593027.3333333
Tue Feb 20 18:00:00 2024,20045905,55593583
Tue Feb 20 20:00:00 2024,20045643.6666667,55593617
Tue Feb 20 22:00:00 2024,20045479.3333333,55593728.6666667
Wed Feb 21 00:00:00 2024,20045317.0666667,55593650.5333333
Wed Feb 21 02:00:00 2024,20045426.8,55593663.0666667
Wed Feb 21 04:00:00 2024,20045180.6666667,55593756.6666667
Wed Feb 21 06:00:00 2024,20045224.4,55593729.6
Wed Feb 21 08:00:00 2024,20045343.0666667,55594438.9333333
Wed Feb 21 10:00:00 2024,20048215,55593735.3333333
Wed Feb 21 12:00:00 2024,20045443.6666667,55593780.6666667
Wed Feb 21 14:00:00 2024,20045300.3333333,55593767.3333333
Wed Feb 21 16:00:00 2024,20045233,55595093
Wed Feb 21 18:00:00 2024,20050623.6666667,55594985.3333333
Wed Feb 21 20:00:00 2024,20045331.2,55593640
Wed Feb 21 22:00:00 2024,20046516.8,55593633.6
Thu Feb 22 00:00:00 2024,20046595.2,55592360.8
Thu Feb 22 02:00:00 2024,20046470.4,55592517.6
Thu Feb 22 04:00:00 2024,20046520.8,55592584
Thu Feb 22 06:00:00 2024,20046476,55592506.4
Thu Feb 22 08:00:00 2024,20046554.4,55593204.8
Thu Feb 22 10:00:00 2024,20053538.3333333,55592392
Thu Feb 22 12:00:00 2024,20046947.3333333,55592096.3333333
Thu Feb 22 14:00:00 2024,20047419,55591936.3333333
Thu Feb 22 16:00:00 2024,20047514.3333333,55591488
Thu Feb 22 18:00:00 2024,20047457,55591561.3333333
Thu Feb 22 20:00:00 2024,20052713.3333333,55592130.6666667
Thu Feb 22 22:00:00 2024,20052694.3333333,55593260
Fri Feb 23 00:00:00 2024,20045582.6666667,55593359
Fri Feb 23 02:00:00 2024,20045696.6666667,55593347
Fri Feb 23 04:00:00 2024,20045718.6666667,55593306
Fri Feb 23 06:00:00 2024,20045648.6666667,55593380
Fri Feb 23 08:00:00 2024,20045598.6666667,55594085.3333333
Fri Feb 23 10:00:00 2024,20045614.6666667,55593334.6666667
Fri Feb 23 12:00:00 2024,20046163.6666667,55593318.6666667
Fri Feb 23 14:00:00 2024,20046158,55592787.6666667
Fri Feb 23 16:00:00 2024,20046179.3333333,55592821.6666667
Fri Feb 23 18:00:00 2024,20046210,55592876
Fri Feb 23 20:00:00 2024,20050026.4,55592786.4
Fri Feb 23 22:00:00 2024,20052730.4,55593352
Sat Feb 24 00:00:00 2024,20045554.4,55593396
Sat Feb 24 02:00:00 2024,20045529.6,55593428
Sat Feb 24 04:00:00 2024,20045565.6,55593402.4
Sat Feb 24 06:00:00 2024,20045562.4,55593408
Sat Feb 24 08:00:00 2024,20045560.8,55594106.6666667
Sat Feb 24 10:00:00 2024,20045625.0666667,55593400
Sat Feb 24 12:00:00 2024,20049236.9333333,55593353.2
Sat Feb 24 14:00:00 2024,20045660.4,55594372.8
Sat Feb 24 16:00:00 2024,20045568.5333333,55593316.8
Sat Feb 24 18:00:00 2024,20045606.9333333,55593389.0666667
Sat Feb 24 20:00:00 2024,20052021.0666667,55593417.8666667
Sat Feb 24 22:00:00 2024,20052299.2,55593312.8
Sun Feb 25 00:00:00 2024,20051638.6666667,55593329.0666667
Sun Feb 25 02:00:00 2024,20045707.4666667,55593278.6666667
Sun Feb 25 04:00:00 2024,20045574.7333333,55594596
Sun Feb 25 06:00:00 2024,20044396,55594636
Sun Feb 25 08:00:00 2024,20044370,55595282
Sun Feb 25 10:00:00 2024,20044474.4,55594591.6
Sun Feb 25 12:00:00 2024,20044396,55594565
Sun Feb 25 14:00:00 2024,20044339.8,55594608.6
Sun Feb 25 16:00:00 2024,20044486.6666667,55594580.6
Sun Feb 25 18:00:00 2024,20050811.4,55594569.2
Sun Feb 25 20:00:00 2024,20044357.4,55594554.6
Sun Feb 25 22:00:00 2024,20044312.6,55594600.9333333
Mon Feb 26 00:00:00 2024,20044390.4,55594600
Mon Feb 26 02:00:00 2024,20044384,55594609.6
Mon Feb 26 04:00:00 2024,20044460.4,55594597.6
Mon Feb 26 06:00:00 2024,20044365.6,55594591.6
Mon Feb 26 08:00:00 2024,20044348.6,55595269
Mon Feb 26 10:00:00 2024,20047007.8666667,55594560.8666667
Mon Feb 26 12:00:00 2024,20044271.2666667,55595136
Mon Feb 26 14:00:00 2024,20043978,55595112
Mon Feb 26 16:00:00 2024,20044004,55595128
Mon Feb 26 18:00:00 2024,20047112,55595104.0666667
Mon Feb 26 20:00:00 2024,20043839.9333333,55595111.5333333
Mon Feb 26 22:00:00 2024,20043913.6,55595029.6666667
Tue Feb 27 00:00:00 2024,20043852.8,55595104.1333333
Tue Feb 27 02:00:00 2024,20043765,55595101.2
Tue Feb 27 04:00:00 2024,20043943.3333333,55595111.5333333
Tue Feb 27 06:00:00 2024,20043982.6,55595078.9333333
Tue Feb 27 08:00:00 2024,20043867.4,55595763.6
Tue Feb 27 10:00:00 2024,20048601.8,55595094
Tue Feb 27 12:00:00 2024,20043891.4,55595092.8
Tue Feb 27 14:00:00 2024,20043920,55595054.2
Tue Feb 27 16:00:00 2024,20047430.6666667,55595030
Tue Feb 27 18:00:00 2024,20049150.6666667,55595092
Tue Feb 27 20:00:00 2024,20044423.2,55595130.9333333
Tue Feb 27 22:00:00 2024,20044509.2,55594481.2
Wed Feb 28 00:00:00 2024,20044317.6,55595007
Wed Feb 28 02:00:00 2024,20043945.4666667,55595005.8666667
Wed Feb 28 04:00:00 2024,20043945.7333333,55595073.0666667
Wed Feb 28 06:00:00 2024,20043912.6666667,55595079.8666667
Wed Feb 28 08:00:00 2024,20043877.0666667,55595769.8666667
Wed Feb 28 10:00:00 2024,20049210.6666667,55595067.8666667
Wed Feb 28 12:00:00 2024,20050434.1333333,55595035.0666667
Wed Feb 28 14:00:00 2024,20049040,55596420.2
Wed Feb 28 16:00:00 2024,20050836.4,55595150.6
Wed Feb 28 18:00:00 2024,20044435.6,55594616.4
Wed Feb 28 20:00:00 2024,20044391.4666667,55594670.1333333
Wed Feb 28 22:00:00 2024,20044426.1333333,55594697.3333333
Thu Feb 29 00:00:00 2024,20047694.4,55594706.9333333
Thu Feb 29 02:00:00 2024,20044366.9333333,55594636.0666667
Thu Feb 29 04:00:00 2024,20044391.2,55594713.6
Thu Feb 29 06:00:00 2024,20044308,55594612.2
Thu Feb 29 08:00:00 2024,20044353.6,55595397.2
Thu Feb 29 10:00:00 2024,20044429.3333333,55594586.4
Thu Feb 29 12:00:00 2024,20047449.6,55594597.8666667
Thu Feb 29 14:00:00 2024,20044732,55594219.2
Thu Feb 29 16:00:00 2024,20044908.8,55594548.5333333
Thu Feb 29 18:00:00 2024,20044402.2666667,55594501.9333333
Thu Feb 29 20:00:00 2024,20044456.8,55594654.8666667
Thu Feb 29 22:00:00 2024,20044408,55594628
Fri Mar  1 00:00:00 2024,20044425.6666667,55594676.2666667
Fri Mar  1 02:00:00 2024,20044455.6666667,55594561.0666667
Fri Mar  1 04:00:00 2024,20051083.7333333,55594904.4666667
Fri Mar  1 06:00:00 2024,20045633.6666667,55593302.6
Fri Mar  1 08:00:00 2024,20045522.2,55595331.3333333
Fri Mar  1 10:00:00 2024,20045077.8666667,55594650.0666667
Fri Mar  1 12:00:00 2024,20047866.4,55593947.2
Fri Mar  1 14:00:00 2024,20045016,55593985.8
Fri Mar  1 16:00:00 2024,20044973.8,55594688.4
Fri Mar  1 18:00:00 2024,20044484.4,55594595.6
Fri Mar  1 20:00:00 2024,20044323.6666667,55594656.6666667
Fri Mar  1 22:00:00 2024,20044327,55594684